TimeADT,TemperatureF,Dew PointF,Humidity,Sea Level PressureIn,VisibilityMPH,Wind Direction,Wind SpeedMPH,Gust SpeedMPH,PrecipitationIn,Events,Conditions,WindDirDegrees,DateUTC
12:00 AM,59.9,56.7,89,29.49,-9999.0,SW,10.4,-,N/A,,Unknown,220,2012-11-02 03:00:00
12:20 AM,61.2,57.0,86,-9999,-9999.0,South,10.4,17.3,N/A,,Unknown,180,2012-11-02 03:20:00
12:40 AM,60.8,56.7,86,-9999,-9999.0,South,8.1,-,N/A,,Unknown,180,2012-11-02 03:40:00
1:00 AM,60.8,56.3,85,29.49,-9999.0,South,11.5,17.3,N/A,,Unknown,170,2012-11-02 04:00:00
1:20 AM,60.8,56.1,85,-9999,-9999.0,SSE,11.5,20.7,N/A,,Unknown,150,2012-11-02 04:20:00
1:40 AM,61.0,55.9,83,-9999,-9999.0,South,11.5,20.7,N/A,,Unknown,170,2012-11-02 04:40:00
2:00 AM,61.0,55.9,83,29.48,-9999.0,SSE,15.0,-,N/A,,Unknown,150,2012-11-02 05:00:00
2:20 AM,61.0,55.9,83,-9999,-9999.0,SE,12.7,-,N/A,,Unknown,140,2012-11-02 05:20:00
2:40 AM,61.2,55.9,83,-9999,-9999.0,SE,12.7,-,N/A,,Unknown,140,2012-11-02 05:40:00
3:00 AM,61.2,55.4,81,29.47,-9999.0,SSE,13.8,-,N/A,,Unknown,150,2012-11-02 06:00:00
3:20 AM,60.8,55.4,82,-9999,-9999.0,SSE,8.1,-,N/A,,Unknown,150,2012-11-02 06:20:00
3:40 AM,60.6,55.6,83,-9999,-9999.0,South,8.1,-,N/A,,Unknown,170,2012-11-02 06:40:00
4:00 AM,60.1,55.2,84,29.46,-9999.0,SSW,8.1,-,N/A,,Unknown,200,2012-11-02 07:00:00
4:20 AM,60.4,55.4,83,-9999,-9999.0,SSW,8.1,-,N/A,,Unknown,200,2012-11-02 07:20:00
4:40 AM,59.2,55.6,88,-9999,-9999.0,SSW,5.8,-,N/A,,Unknown,210,2012-11-02 07:40:00
5:00 AM,60.4,55.9,85,29.47,-9999.0,South,8.1,-,N/A,,Unknown,180,2012-11-02 08:00:00
5:20 AM,59.9,56.1,87,-9999,-9999.0,South,5.8,-,N/A,,Unknown,190,2012-11-02 08:20:00
5:40 AM,57.0,54.5,91,-9999,-9999.0,SSW,11.5,-,N/A,,Unknown,210,2012-11-02 08:40:00
6:00 AM,57.0,55.0,93,29.47,-9999.0,SSW,11.5,-,N/A,,Unknown,200,2012-11-02 09:00:00
6:20 AM,56.7,54.9,94,-9999,-9999.0,SSW,10.4,-,N/A,,Unknown,200,2012-11-02 09:20:00
6:40 AM,56.3,54.5,94,-9999,-9999.0,South,11.5,-,N/A,,Unknown,190,2012-11-02 09:40:00
7:00 AM,56.8,55.0,94,29.48,-9999.0,South,11.5,-,N/A,,Unknown,190,2012-11-02 10:00:00
7:20 AM,56.7,54.5,92,-9999,-9999.0,South,10.4,-,N/A,,Unknown,190,2012-11-02 10:20:00
7:40 AM,56.8,54.5,92,-9999,-9999.0,South,8.1,-,N/A,,Unknown,190,2012-11-02 10:40:00
8:00 AM,56.5,54.1,92,29.49,-9999.0,South,10.4,-,N/A,,Unknown,190,2012-11-02 11:00:00
8:20 AM,56.8,54.5,92,-9999,-9999.0,South,6.9,-,N/A,,Unknown,180,2012-11-02 11:20:00
8:40 AM,56.7,54.3,92,-9999,-9999.0,SSW,8.1,-,N/A,,Unknown,200,2012-11-02 11:40:00
9:00 AM,56.5,54.1,92,29.51,-9999.0,SSW,11.5,17.3,N/A,,Unknown,200,2012-11-02 12:00:00
9:20 AM,55.8,53.6,92,-9999,-9999.0,SSW,12.7,-,N/A,,Unknown,210,2012-11-02 12:20:00
9:40 AM,54.9,52.9,93,-9999,-9999.0,SSW,11.5,-,N/A,,Unknown,210,2012-11-02 12:40:00
10:00 AM,54.5,52.3,92,29.52,-9999.0,SSW,13.8,-,N/A,,Unknown,210,2012-11-02 13:00:00
10:20 AM,54.3,51.6,91,-9999,-9999.0,SSW,12.7,18.4,N/A,,Unknown,210,2012-11-02 13:20:00
10:40 AM,54.0,50.9,89,-9999,-9999.0,SSW,11.5,-,N/A,,Unknown,200,2012-11-02 13:40:00
11:00 AM,54.0,50.4,88,29.54,-9999.0,SSW,12.7,-,N/A,,Unknown,200,2012-11-02 14:00:00
11:20 AM,53.4,49.5,86,-9999,-9999.0,South,8.1,-,N/A,,Unknown,190,2012-11-02 14:20:00
11:40 AM,53.4,49.5,86,-9999,-9999.0,South,6.9,-,N/A,,Unknown,190,2012-11-02 14:40:00
12:00 PM,53.4,49.6,87,29.54,-9999.0,South,10.4,-,N/A,,Unknown,190,2012-11-02 15:00:00
12:20 PM,53.6,49.6,86,-9999,-9999.0,SW,6.9,-,N/A,,Unknown,220,2012-11-02 15:20:00
12:40 PM,54.0,50.4,88,-9999,-9999.0,SSW,6.9,-,N/A,,Unknown,210,2012-11-02 15:40:00
1:00 PM,54.5,50.7,87,29.53,-9999.0,SSW,8.1,-,N/A,,Unknown,200,2012-11-02 16:00:00
1:20 PM,54.5,50.7,87,-9999,-9999.0,SSW,9.2,-,N/A,,Unknown,210,2012-11-02 16:20:00
1:40 PM,54.7,50.7,86,-9999,-9999.0,SW,10.4,-,N/A,,Unknown,220,2012-11-02 16:40:00
2:00 PM,54.3,50.4,86,29.53,-9999.0,SW,11.5,-,N/A,,Unknown,220,2012-11-02 17:00:00
2:20 PM,54.0,49.5,85,-9999,-9999.0,SSW,9.2,-,N/A,,Unknown,200,2012-11-02 17:20:00
2:40 PM,54.5,48.6,80,-9999,-9999.0,SSW,9.2,-,N/A,,Unknown,210,2012-11-02 17:40:00
3:00 PM,54.3,48.2,80,29.53,-9999.0,South,12.7,-,N/A,,Unknown,180,2012-11-02 18:00:00
3:20 PM,55.0,48.2,78,-9999,-9999.0,South,5.8,-,N/A,,Unknown,190,2012-11-02 18:20:00
3:40 PM,54.3,47.8,79,-9999,-9999.0,South,5.8,-,N/A,,Unknown,170,2012-11-02 18:40:00
4:00 PM,55.2,48.0,77,29.54,-9999.0,South,6.9,-,N/A,,Unknown,190,2012-11-02 19:00:00
4:20 PM,54.1,47.7,79,-9999,-9999.0,South,6.9,-,N/A,,Unknown,180,2012-11-02 19:20:00
4:40 PM,53.2,47.1,80,-9999,-9999.0,South,5.8,-,N/A,,Unknown,170,2012-11-02 19:40:00
5:00 PM,52.7,47.1,81,29.55,-9999.0,SSE,6.9,-,N/A,,Unknown,150,2012-11-02 20:00:00
5:20 PM,52.0,46.6,82,-9999,-9999.0,SSE,5.8,-,N/A,,Unknown,150,2012-11-02 20:20:00
5:40 PM,50.2,45.7,85,-9999,-9999.0,SSE,5.8,-,N/A,,Unknown,150,2012-11-02 20:40:00
6:00 PM,49.1,45.1,86,29.55,-9999.0,SE,5.8,-,N/A,,Unknown,140,2012-11-02 21:00:00
6:20 PM,47.8,44.6,89,-9999,-9999.0,SE,4.6,-,N/A,,Unknown,130,2012-11-02 21:20:00
6:40 PM,47.3,43.7,87,-9999,-9999.0,SE,5.8,-,N/A,,Unknown,130,2012-11-02 21:40:00
7:00 PM,47.7,44.1,87,29.55,-9999.0,SE,8.1,-,N/A,,Unknown,130,2012-11-02 22:00:00
7:20 PM,47.5,43.0,84,-9999,-9999.0,SE,8.1,-,N/A,,Unknown,130,2012-11-02 22:20:00
7:40 PM,49.3,44.8,84,-9999,-9999.0,SE,8.1,-,N/A,,Unknown,140,2012-11-02 22:40:00
8:00 PM,49.8,45.1,84,29.55,-9999.0,SSE,9.2,-,N/A,,Unknown,150,2012-11-02 23:00:00
8:20 PM,48.4,44.2,86,-9999,-9999.0,ENE,3.5,-,N/A,,Unknown,60,2012-11-02 23:20:00
8:40 PM,49.1,45.1,86,-9999,-9999.0,SSE,2.3,-,N/A,,Unknown,150,2012-11-02 23:40:00
9:00 PM,49.6,45.5,86,29.54,-9999.0,NNE,4.6,-,N/A,,Unknown,20,2012-11-03 00:00:00
9:20 PM,49.6,45.5,86,-9999,-9999.0,SSW,1.2,-,N/A,,Unknown,210,2012-11-03 00:20:00
9:40 PM,50.4,46.0,85,-9999,-9999.0,Calm,Calm,-,N/A,,Unknown,0,2012-11-03 00:40:00
10:00 PM,51.3,47.7,87,29.54,-9999.0,SE,3.5,-,N/A,,Unknown,130,2012-11-03 01:00:00
10:20 PM,52.3,48.0,85,-9999,-9999.0,South,5.8,-,N/A,,Unknown,170,2012-11-03 01:20:00
10:40 PM,51.3,47.1,86,-9999,-9999.0,East,3.5,-,N/A,,Unknown,100,2012-11-03 01:40:00
11:00 PM,51.3,47.5,87,29.53,-9999.0,East,5.8,-,N/A,,Unknown,100,2012-11-03 02:00:00
11:20 PM,52.3,48.0,85,-9999,-9999.0,SE,5.8,-,N/A,,Unknown,140,2012-11-03 02:20:00
11:40 PM,52.5,48.0,85,-9999,-9999.0,South,5.8,-,N/A,,Unknown,170,2012-11-03 02:40:00